This demonstration page uses our WeatherBlox Daily Observations layout. Learn more.

Left ArrowRight Arrow

38.88101, -77.10428

Hourly Observations for May 27, 2016

Temp ( °F °C ) Dew Point ( °F °C ) Humidity (%) Winds ( mph kmh ) Pressure ( in mb ) Visibility ( mi km ) Precip ( " mm )
12:52 am 00:52 Mostly Cloudy 73 23 63 17 69 69 S 8 13 30.06 1018 10 16 0.00 0.00
1:52 am 01:52 Mostly Cloudy 72 22.2 63 17.2 73 73 S 8 13 30.04 1017 10 16 0.00 0.00
2:52 am 02:52 Mostly Cloudy 72 22.2 64 17.8 76 76 S 7 11 30.05 1018 10 16 0.00 0.00
3:52 am 03:52 Cloudy 71 21.7 64 17.8 79 79 S 8 13 30.06 1018 10 16 0.00 0.00
4:52 am 04:52 Mostly Cloudy 71 21.7 64 17.8 79 79 S 8 13 30.06 1018 10 16 0.00 0.00
5:52 am 05:52 Mostly Cloudy 70 21.1 64 17.8 82 82 S 7 11 30.06 1018 10 16 0.00 0.00
6:52 am 06:52 Mostly Cloudy 72 22.2 65 18.3 79 79 SSW 3 6 30.09 1019 10 16 0.00 0.00
7:52 am 07:52 Partly Cloudy 73 22.8 66 18.9 79 79 S 8 13 30.09 1019 10 16 0.00 0.00
8:52 am 08:52 Partly Cloudy 75 23.9 66 18.9 74 74 S 8 13 30.09 1019 10 16 0.00 0.00
9:52 am 09:52 Mostly Cloudy 77 25 67 19.4 71 71 S 8 13 30.09 1019 10 16 0.00 0.00
10:52 am 10:52 Mostly Cloudy 80 26.7 69 20.6 69 69 S 7 11 30.09 1019 10 16 0.00 0.00
11:52 am 11:52 Mostly Cloudy 83 28.3 69 20.6 63 63 S 9 15 30.08 1019 10 16 0.00 0.00
12:52 pm 12:52 Mostly Cloudy 85 29.4 68 20 57 57 S 8 13 30.07 1018 10 16 0.00 0.00
2:52 pm 14:52 Partly Cloudy 87 30.6 70 21.1 57 57 S 9 15 30.05 1018 10 16 0.00 0.00
3:52 pm 15:52 Mostly Sunny 86 30 69 20.6 57 57 S 14 22 30.04 1017 10 16 0.00 0.00
4:52 pm 16:52 Partly Cloudy 85 29.4 70 21.1 61 61 S 9 15 30.03 1017 10 16 0.00 0.00
5:52 pm 17:52 Partly Cloudy 84 28.9 70 21.1 63 63 S 12 19 30.02 1017 10 16 0.00 0.00
6:52 pm 18:52 Mostly Cloudy 83 28.3 69 20.6 63 63 S 12 19 30.02 1017 10 16 0.00 0.00
7:52 pm 19:52 Mostly Cloudy 81 27.2 69 20.6 67 67 S 9 15 30.04 1017 10 16 0.00 0.00
8:52 pm 20:52 Mostly Cloudy 80 26.7 68 20 67 67 S 8 13 30.06 1018 10 16 0.00 0.00
9:52 pm 21:52 Partly Cloudy 77 25 69 20.6 77 77 S 7 11 30.08 1019 10 16 0.00 0.00
10:52 pm 22:52 Mostly Cloudy 76 24.4 68 20 77 77 S 9 15 30.08 1019 10 16 0.00 0.00
11:52 pm 23:52 Mostly Cloudy 76 24.4 68 20 77 77 S 9 15 30.09 1019 10 16 0.00 0.00

Powered by AerisWeather